Terug naar catalogus

STARLINK-34092

ActiefCommunicatieVLEO
NORAD 63904·PAYLOAD·🇺🇸 United States

Gelanceerd May 10, 2025 vanaf Cape Canaveral Space Force Station

Loading…

Volgende Passages (komende 24 uur)

TLE

VersSource: CelesTrak SupGP

Epoch: Sep 14, 2026, 21:03 UTC

1 63904C 25095Q   26257.87756944  .00002476  00000+0  89674-4 0  2578
2 63904  43.0008 188.0509 0001365 262.9908 273.4314 15.27576982    18

Volg STARLINK-34092 in realtime met AllMySat

Download on the App Store